EW8669 Weather Reports


Display with metric or nautical units.
time (UTC)temp
F
wind
direction
speed
MPH
gust
MPH
rain 1hr
in
rain 24hr
in
rain mn
in
humidity
%
barometer
mb
20260904230053 76 0 0.0 6.0 0.02 0.36 0.36 91 1014.6
20260904225522 76 80 3.0 7.0 0.02 0.36 0.36 91 1014.8
20260904225024 76 83 3.0 8.0 0.02 0.36 0.36 90 1014.7
20260904224551 76 99 4.0 8.0 0.04 0.36 0.36 90 1014.8
20260904224025 77 76 1.0 8.0 0.06 0.36 0.36 90 1014.9
20260904223523 77 73 2.0 9.0 0.06 0.36 0.36 89 1014.8
20260904223051 77 97 6.0 10.0 0.06 0.36 0.36 88 1014.5
20260904222521 77 129 6.0 12.0 0.05 0.35 0.35 88 1014.5
20260904222024 78 107 8.0 12.0 0.24 0.35 0.35 89 1014.5
20260904221549 78 94 9.0 11.0 0.34 0.34 0.34 89 1014.7
20260904221024 79 122 5.0 16.0 0.34 0.34 0.34 88 1014.4
20260904220524 79 118 9.0 16.0 0.34 0.34 0.34 88 1014.6
20260904220105 80 136 8.0 12.0 0.34 0.34 0.34 88 1014.7
20260904215525 80 0 0.0 10.0 0.34 0.34 0.34 88 1014.7
20260904215024 81 0 0.0 0.0 0.34 0.34 0.34 88 1014.5
20260904214546 82 0 0.0 0.0 0.31 0.31 0.31 88 1014.1
20260904214024 82 0 0.0 4.0 0.30 0.30 0.30 87 1013.9
20260904213522 84 0 0.0 16.0 0.30 0.30 0.30 85 1013.3
20260904213045 85 33 1.0 17.0 0.30 0.30 0.30 81 1013.0
20260904212524 86 323 4.0 17.0 0.30 0.30 0.30 78 1013.2
20260904212024 88 202 12.0 17.0 0.06 0.06 0.06 77 1013.5
20260904211551 89 198 8.0 20.0 0.00 0.00 0.00 75 1013.4
20260904211024 91 217 10.0 20.0 0.00 0.00 0.00 70 1013.3
20260904210524 91 171 6.0 12.0 0.00 0.00 0.00 70 1013.3
20260904210057 91 161 7.0 12.0 0.00 0.00 0.00 68 1013.1
20260904205525 91 156 6.0 11.0 0.00 0.00 0.00 68 1013.0
20260904205028 91 166 8.0 11.0 0.00 0.00 0.00 68 1013.0
20260904204550 91 174 7.0 11.0 0.00 0.00 0.00 68 1013.1
20260904204025 92 161 7.0 12.0 0.00 0.00 0.00 67 1013.1
20260904203524 92 171 8.0 14.0 0.00 0.00 0.00 66 1013.2
20260904203046 92 122 9.0 14.0 0.00 0.00 0.00 67 1012.9
20260904202524 92 121 8.0 12.0 0.00 0.00 0.00 68 1012.9
20260904202028 91 0 0.0 0.0 0.00 0.00 0.00 69 1013.0
20260904201545 91 0 0.0 0.0 0.00 0.00 0.00 68 1013.0
20260904201025 91 0 0.0 0.0 0.00 0.00 0.00 67 1013.0
20260904200527 91 0 0.0 9.0 0.00 0.00 0.00 68 1013.0
20260904200116 91 0 1.0 9.0 0.00 0.00 0.00 67 1013.1
20260904195525 92 0 0.0 0.0 0.00 0.00 0.00 67 1013.2
20260904195023 92 0 0.0 0.0 0.00 0.00 0.00 66 1013.3
20260904194630 92 0 0.0 0.0 0.00 0.00 0.00 67 1013.3
20260904194025 92 0 0.0 0.0 0.00 0.00 0.00 64 1013.5
20260904193620 92 0 0.0 0.0 0.00 0.00 0.00 63 1013.6
20260904193045 91 0 0.0 0.0 0.00 0.00 0.00 62 1013.7
20260904192525 91 0 0.0 10.0 0.00 0.00 0.00 65 1013.7
20260904192025 91 0 0.0 10.0 0.00 0.00 0.00 67 1013.8
20260904191607 91 180 6.0 10.0 0.00 0.00 0.00 67 1013.8
20260904191024 91 0 0.0 5.0 0.00 0.00 0.00 66 1013.9
20260904190525 91 0 2.0 5.0 0.00 0.00 0.00 67 1014.0
20260904190054 91 0 0.0 0.0 0.00 0.00 0.00 69 1014.0
20260904185526 91 0 0.0 0.0 0.00 0.00 0.00 68 1014.1
20260904185025 91 0 0.0 0.0 0.00 0.00 0.00 67 1014.2
20260904184554 91 0 0.0 0.0 0.00 0.00 0.00 67 1014.3
20260904184024 91 0 0.0 11.0 0.00 0.00 0.00 68 1014.3
20260904183525 91 0 1.0 11.0 0.00 0.00 0.00 68 1014.5
20260904183054 91 195 6.0 11.0 0.00 0.00 0.00 69 1014.4
20260904182525 90 198 7.0 10.0 0.00 0.00 0.00 69 1014.5
20260904182028 90 223 6.0 9.0 0.00 0.00 0.00 68 1014.5
20260904181554 90 198 6.0 9.0 0.00 0.00 0.00 71 1014.8
20260904181026 90 213 2.0 9.0 0.00 0.00 0.00 72 1014.9
20260904180525 90 0 0.0 0.0 0.00 0.00 0.00 75 1014.9
20260904180053 89 0 0.0 0.0 0.00 0.00 0.00 74 1014.9
20260904175524 89 0 0.0 0.0 0.00 0.00 0.00 76 1015.1
20260904175024 89 0 0.0 0.0 0.00 0.00 0.00 76 1015.2
20260904174549 89 0 0.0 0.0 0.00 0.00 0.00 75 1015.2
20260904174024 89 0 0.0 0.0 0.00 0.00 0.00 76 1015.3
20260904173526 89 0 0.0 0.0 0.00 0.00 0.00 75 1015.3
20260904173100 89 0 0.0 0.0 0.00 0.00 0.00 75 1015.2
20260904172526 89 0 0.0 0.0 0.00 0.00 0.00 73 1015.3
20260904172026 89 0 0.0 0.0 0.00 0.00 0.00 76 1015.5
20260904171552 88 0 0.0 0.0 0.00 0.00 0.00 76 1015.6
20260904171023 88 0 0.0 0.0 0.00 0.00 0.00 76 1015.7
20260904170527 88 0 0.0 0.0 0.00 0.00 0.00 75 1015.7
20260904170050 88 0 0.0 0.0 0.00 0.00 0.00 74 1015.9
20260904165525 88 0 0.0 0.0 0.00 0.00 0.00 75 1015.8
20260904165025 88 0 0.0 0.0 0.00 0.00 0.00 73 1015.7
20260904164548 88 0 0.0 0.0 0.00 0.00 0.00 75 1015.6
20260904164030 88 0 0.0 0.0 0.00 0.00 0.00 76 1015.8
20260904163527 87 0 0.0 0.0 0.00 0.00 0.00 76 1015.9
20260904163044 87 0 0.0 0.0 0.00 0.00 0.00 76 1015.9
20260904162526 87 0 0.0 0.0 0.00 0.00 0.00 76 1016.0
20260904162029 87 0 0.0 0.0 0.00 0.00 0.00 77 1015.9
20260904161554 87 0 0.0 0.0 0.00 0.00 0.00 76 1016.1
20260904161025 87 0 0.0 0.0 0.00 0.00 0.00 77 1016.1
20260904160525 87 0 0.0 0.0 0.00 0.00 0.00 77 1016.2
20260904160050 86 0 0.0 0.0 0.00 0.00 0.00 77 1016.1
20260904155525 86 0 0.0 0.0 0.00 0.00 0.00 79 1016.2
20260904155023 86 0 0.0 0.0 0.00 0.00 0.00 79 1016.3
20260904154552 86 0 0.0 0.0 0.00 0.00 0.00 80 1016.4
20260904154023 86 0 0.0 0.0 0.00 0.00 0.00 79 1016.4
20260904153526 86 0 0.0 0.0 0.00 0.00 0.00 80 1016.5
20260904153044 86 0 0.0 0.0 0.00 0.00 0.00 80 1016.5
20260904152525 86 0 0.0 0.0 0.00 0.00 0.00 79 1016.4
20260904152024 86 0 0.0 0.0 0.00 0.00 0.00 80 1016.1
20260904151606 86 0 0.0 5.0 0.00 0.00 0.00 81 1016.2
20260904151024 86 0 0.0 6.0 0.00 0.00 0.00 82 1016.1
20260904150525 85 178 4.0 8.0 0.00 0.00 0.00 83 1016.1
20260904150045 85 169 5.0 9.0 0.00 0.00 0.00 83 1016.1
20260904145524 85 213 5.0 12.0 0.00 0.00 0.00 83 1016.1
20260904145024 85 179 6.0 12.0 0.00 0.00 0.00 83 1016.0
20260904144547 85 200 7.0 12.0 0.00 0.00 0.00 84 1016.0
20260904144025 84 203 0.0 6.0 0.00 0.00 0.00 84 1016.0
20260904143525 84 0 0.0 9.0 0.00 0.00 0.00 84 1016.1
20260904143054 84 0 1.0 10.0 0.00 0.00 0.00 84 1016.0
20260904142528 84 217 7.0 10.0 0.00 0.00 0.00 85 1015.9
20260904142025 84 202 4.0 10.0 0.00 0.00 0.00 86 1015.9
20260904141616 84 189 2.0 5.0 0.00 0.00 0.00 87 1016.0
20260904141028 84 175 2.0 5.0 0.00 0.00 0.00 87 1016.0
20260904140524 83 0 0.0 2.0 0.00 0.00 0.00 88 1016.1
20260904140101 83 0 0.0 3.0 0.00 0.00 0.00 89 1015.9
20260904135525 82 0 0.0 5.0 0.00 0.00 0.00 90 1015.8
20260904135025 82 163 2.0 5.0 0.00 0.00 0.00 90 1015.8
20260904134555 81 165 4.0 5.0 0.00 0.00 0.00 90 1015.8
20260904134024 81 173 2.0 5.0 0.00 0.00 0.00 91 1015.8
20260904133525 81 178 2.0 5.0 0.00 0.00 0.00 91 1015.7
20260904133057 81 165 1.0 4.0 0.00 0.00 0.00 92 1015.8
20260904132525 80 0 0.0 2.0 0.00 0.00 0.00 92 1015.7
20260904132025 80 0 0.0 2.0 0.00 0.00 0.00 93 1015.7
20260904131557 80 164 0.0 2.0 0.00 0.00 0.00 93 1015.6
20260904131028 79 164 0.0 2.0 0.00 0.00 0.00 93 1015.6
20260904130525 79 164 0.0 2.0 0.00 0.00 0.00 94 1015.6
20260904130048 79 0 0.0 0.0 0.00 0.00 0.00 94 1015.7
20260904125526 78 0 0.0 0.0 0.00 0.00 0.00 94 1015.6
20260904125024 78 0 0.0 0.0 0.00 0.00 0.00 94 1015.5
20260904124548 78 0 0.0 0.0 0.00 0.00 0.00 94 1015.6
20260904124026 78 0 0.0 0.0 0.00 0.00 0.00 94 1015.5
20260904123529 78 0 0.0 0.0 0.00 0.00 0.00 94 1015.4
20260904123050 77 0 0.0 0.0 0.00 0.00 0.00 94 1015.3
20260904122525 77 0 0.0 0.0 0.00 0.00 0.00 94 1015.2
20260904122025 77 0 0.0 0.0 0.00 0.00 0.00 94 1015.3
20260904121554 77 0 0.0 0.0 0.00 0.00 0.00 94 1015.2
20260904121026 77 0 0.0 0.0 0.00 0.00 0.00 94 1015.1
20260904120526 77 0 0.0 0.0 0.00 0.00 0.00 94 1015.3
20260904120055 77 0 0.0 0.0 0.00 0.00 0.00 94 1015.2
20260904115525 76 0 0.0 0.0 0.00 0.00 0.00 94 1015.1
20260904115024 76 0 0.0 0.0 0.00 0.00 0.00 94 1015.1
20260904114549 76 0 0.0 0.0 0.00 0.00 0.00 94 1015.0
20260904114025 76 0 0.0 0.0 0.00 0.00 0.00 94 1014.9
20260904113527 76 0 0.0 0.0 0.00 0.00 0.00 94 1015.0
20260904113051 76 0 0.0 0.0 0.00 0.00 0.00 94 1014.9
20260904112526 76 0 0.0 0.0 0.00 0.00 0.00 94 1014.8
20260904112028 76 0 0.0 0.0 0.00 0.00 0.00 94 1014.8
20260904111545 76 0 0.0 0.0 0.00 0.00 0.00 94 1014.8
20260904111028 76 0 0.0 0.0 0.00 0.00 0.00 94 1014.7
20260904110525 76 0 0.0 0.0 0.00 0.00 0.00 94 1014.6
20260904110049 76 0 0.0 0.0 0.00 0.00 0.00 94 1014.5
20260904105524 76 0 0.0 0.0 0.00 0.00 0.00 94 1014.5
20260904105024 76 0 0.0 0.0 0.00 0.00 0.00 94 1014.4
20260904104552 76 0 0.0 0.0 0.00 0.00 0.00 94 1014.4
20260904104023 76 0 0.0 0.0 0.00 0.00 0.00 94 1014.3
20260904103526 76 0 0.0 0.0 0.00 0.00 0.00 94 1014.2
20260904103052 76 0 0.0 0.0 0.00 0.00 0.00 93 1014.2
20260904102525 76 0 0.0 0.0 0.00 0.00 0.00 93 1014.2
20260904102025 76 0 0.0 0.0 0.00 0.00 0.00 93 1014.2
20260904101542 76 0 0.0 0.0 0.00 0.00 0.00 93 1014.2
20260904101024 76 0 0.0 0.0 0.00 0.00 0.00 93 1014.2
20260904100525 76 0 0.0 0.0 0.00 0.00 0.00 93 1014.1
20260904100050 76 0 0.0 0.0 0.00 0.00 0.00 93 1014.1
20260904095527 76 0 0.0 0.0 0.00 0.00 0.00 93 1014.1
20260904095023 76 0 0.0 0.0 0.00 0.00 0.00 93 1014.0
20260904094552 76 0 0.0 0.0 0.00 0.00 0.00 93 1013.9
20260904094023 76 0 0.0 0.0 0.00 0.00 0.00 93 1013.8
20260904093529 76 0 0.0 0.0 0.00 0.00 0.00 93 1013.8
20260904093052 77 0 0.0 0.0 0.00 0.00 0.00 93 1013.8
20260904092527 77 0 0.0 0.0 0.00 0.00 0.00 94 1013.8
20260904092024 77 0 0.0 0.0 0.00 0.00 0.00 93 1013.8
20260904091544 77 0 0.0 0.0 0.00 0.00 0.00 93 1013.8
20260904091026 76 0 0.0 0.0 0.00 0.00 0.00 93 1013.7
20260904090524 76 0 0.0 0.0 0.00 0.00 0.00 93 1013.7
20260904090054 76 0 0.0 0.0 0.00 0.00 0.00 93 1013.6
20260904085528 76 0 0.0 0.0 0.00 0.00 0.00 93 1013.7
20260904085024 77 0 0.0 0.0 0.00 0.00 0.00 93 1013.6
20260904084549 76 0 0.0 0.0 0.00 0.00 0.00 94 1013.7
20260904084025 76 0 0.0 0.0 0.00 0.00 0.00 94 1013.7
20260904083525 76 0 0.0 0.0 0.00 0.00 0.00 94 1013.7
20260904083047 76 0 0.0 0.0 0.00 0.00 0.00 94 1013.7
20260904082525 76 0 0.0 0.0 0.00 0.00 0.00 94 1013.7
20260904082027 76 0 0.0 0.0 0.00 0.00 0.00 94 1013.6
20260904081552 76 0 0.0 0.0 0.00 0.00 0.00 93 1013.7
20260904081025 76 0 0.0 0.0 0.00 0.00 0.00 93 1013.5
20260904080524 76 0 0.0 0.0 0.00 0.00 0.00 93 1013.5
20260904080054 76 0 0.0 0.0 0.00 0.00 0.00 93 1013.6
20260904075524 76 0 0.0 0.0 0.00 0.00 0.00 93 1013.6
20260904075025 76 0 0.0 0.0 0.00 0.00 0.00 93 1013.5
20260904074546 76 0 0.0 0.0 0.00 0.00 0.00 93 1013.6
20260904074023 76 0 0.0 0.0 0.00 0.00 0.00 93 1013.6
20260904073524 76 0 0.0 0.0 0.00 0.00 0.00 93 1013.6
20260904073049 76 0 0.0 0.0 0.00 0.00 0.00 93 1013.6
20260904072524 76 0 0.0 0.0 0.00 0.00 0.00 93 1013.5
20260904072025 77 0 0.0 0.0 0.00 0.00 0.00 93 1013.5
20260904071543 77 0 0.0 0.0 0.00 0.00 0.00 93 1013.6
20260904071026 77 0 0.0 0.0 0.00 0.00 0.00 93 1013.6
20260904070525 77 0 0.0 0.0 0.00 0.00 0.00 93 1013.5
20260904070054 77 0 0.0 0.0 0.00 0.00 0.00 93 1013.4
20260904065524 77 0 0.0 0.0 0.00 0.00 0.00 93 1013.5
20260904065024 77 0 0.0 0.0 0.00 0.00 0.00 93 1013.6
20260904064557 77 0 0.0 0.0 0.00 0.00 0.00 93 1013.6
20260904064026 76 0 0.0 0.0 0.00 0.00 0.00 93 1013.7
20260904063525 76 0 0.0 0.0 0.00 0.00 0.00 93 1013.8
20260904063042 76 0 0.0 0.0 0.00 0.00 0.00 93 1013.9
20260904062526 77 0 0.0 0.0 0.00 0.00 0.00 93 1013.9
20260904062025 77 0 0.0 0.0 0.00 0.00 0.00 93 1013.9
20260904061548 77 0 0.0 0.0 0.00 0.00 0.00 93 1014.0
20260904061025 76 0 0.0 0.0 0.00 0.00 0.00 93 1014.0
20260904060524 76 0 0.0 0.0 0.00 0.00 0.00 93 1014.0
20260904060054 76 0 0.0 0.0 0.00 0.00 0.00 93 1014.1
20260904055522 76 0 0.0 0.0 0.00 0.00 0.00 93 1014.1
20260904055025 76 0 0.0 0.0 0.00 0.00 0.00 93 1014.2
20260904054547 76 0 0.0 0.0 0.00 0.00 0.00 93 1014.2
20260904054025 76 0 0.0 0.0 0.00 0.00 0.00 93 1014.2
20260904053524 76 0 0.0 0.0 0.00 0.00 0.00 93 1014.2
20260904053043 76 0 0.0 0.0 0.00 0.00 0.00 93 1014.2
20260904052524 76 0 0.0 0.0 0.00 0.00 0.00 93 1014.2
20260904052024 76 0 0.0 0.0 0.00 0.00 0.00 93 1014.4
20260904051550 76 0 0.0 0.0 0.00 0.00 0.00 93 1014.4
20260904051024 76 0 0.0 0.0 0.00 0.00 0.00 92 1014.6
20260904050525 76 0 0.0 0.0 0.00 0.00 0.00 92 1014.6
20260904050106 76 0 0.0 0.0 0.00 0.00 0.00 92 1014.7
20260904045525 76 0 0.0 0.0 0.00 0.00 0.00 92 1014.7
20260904045023 76 0 0.0 0.0 0.00 0.00 0.00 92 1014.7
20260904044554 76 0 0.0 0.0 0.00 0.00 0.00 92 1014.6
20260904044023 76 0 0.0 0.0 0.00 0.00 0.00 92 1014.7
20260904043525 76 0 0.0 0.0 0.00 0.00 0.00 92 1014.6
20260904043044 76 0 0.0 0.0 0.00 0.00 0.00 92 1014.6
20260904042524 76 0 0.0 0.0 0.00 0.00 0.00 92 1014.6
20260904042026 76 0 0.0 0.0 0.00 0.00 0.00 92 1014.6
20260904041603 77 0 0.0 0.0 0.00 0.00 0.00 92 1014.5
20260904041021 77 0 0.0 0.0 0.00 0.00 0.00 92 1014.5
20260904040526 77 0 0.0 0.0 0.00 0.00 0.00 91 1014.5
20260904040054 76 0 0.0 0.0 0.00 0.00 0.00 91 1014.5
20260904035525 77 0 0.0 0.0 0.00 0.00 0.00 91 1014.5
20260904035024 77 0 0.0 0.0 0.00 0.00 0.00 91 1014.4
20260904034601 77 0 0.0 0.0 0.00 0.00 0.00 91 1014.3
20260904034025 77 0 0.0 0.0 0.00 0.00 0.00 91 1014.3
20260904033525 77 0 0.0 0.0 0.00 0.00 0.00 91 1014.3
20260904033041 77 0 0.0 0.0 0.00 0.00 0.00 91 1014.3
20260904032525 77 0 0.0 0.0 0.00 0.00 0.00 91 1014.3
20260904032022 77 0 0.0 0.0 0.00 0.00 0.00 91 1014.3
20260904031552 77 0 0.0 0.0 0.00 0.00 0.00 91 1014.3
20260904031027 77 0 0.0 0.0 0.00 0.00 0.00 91 1014.5
20260904030525 77 0 0.0 0.0 0.00 0.00 0.00 91 1014.4
20260904030049 77 0 0.0 0.0 0.00 0.00 0.00 91 1014.4
20260904025524 77 0 0.0 0.0 0.00 0.00 0.00 91 1014.4
20260904025024 77 0 0.0 0.0 0.00 0.00 0.00 91 1014.4
20260904024546 77 0 0.0 0.0 0.00 0.00 0.00 91 1014.4
20260904024027 77 0 0.0 0.0 0.00 0.00 0.00 91 1014.3
20260904023530 77 0 0.0 0.0 0.00 0.00 0.00 91 1014.1
20260904023053 77 0 0.0 0.0 0.00 0.00 0.00 91 1014.2
20260904022526 77 0 0.0 0.0 0.00 0.00 0.00 91 1014.2
20260904022027 77 0 0.0 0.0 0.00 0.00 0.00 91 1014.3
20260904021552 77 0 0.0 0.0 0.00 0.00 0.00 91 1014.5
20260904021024 77 0 0.0 0.0 0.00 0.00 0.00 90 1014.5
20260904020525 78 0 0.0 0.0 0.00 0.00 0.00 90 1014.7
20260904020051 78 0 0.0 0.0 0.00 0.00 0.00 90 1014.7
20260904015525 78 0 0.0 0.0 0.00 0.00 0.00 90 1014.8
20260904015024 78 0 0.0 0.0 0.00 0.00 0.00 89 1014.6
20260904014556 78 0 0.0 0.0 0.00 0.00 0.00 89 1014.7
20260904014024 78 0 0.0 0.0 0.00 0.00 0.00 89 1014.7
20260904013524 78 0 0.0 0.0 0.00 0.00 0.00 89 1014.7
20260904013041 78 0 0.0 0.0 0.00 0.00 0.00 89 1014.8
20260904012524 79 0 0.0 0.0 0.00 0.00 0.00 88 1014.7
20260904012025 79 0 0.0 0.0 0.00 0.00 0.00 88 1014.7
20260904011601 79 0 0.0 0.0 0.00 0.00 0.00 88 1014.6
20260904011025 79 0 0.0 0.0 0.00 0.00 0.00 88 1014.6
20260904010525 79 0 0.0 0.0 0.00 0.00 0.00 88 1014.6
20260904010049 79 0 0.0 0.0 0.00 0.00 0.00 88 1014.5
20260904005523 79 0 0.0 0.0 0.00 0.00 0.00 88 1014.6
20260904005024 80 0 0.0 0.0 0.00 0.00 0.00 88 1014.7
20260904004547 80 0 0.0 0.0 0.00 0.00 0.00 88 1014.4
20260904004026 80 0 0.0 0.0 0.00 0.00 0.00 89 1014.4
20260904003524 80 0 0.0 0.0 0.00 0.00 0.00 89 1014.3
20260904003042 80 0 0.0 0.0 0.00 0.00 0.00 89 1014.2
20260904002525 80 0 0.0 0.0 0.00 0.00 0.00 89 1014.2
20260904002026 80 0 0.0 0.0 0.00 0.00 0.00 89 1014.1
20260904001553 81 0 0.0 0.0 0.00 0.00 0.00 90 1014.1
20260904001030 81 0 0.0 0.0 0.00 0.00 0.00 90 1014.0
20260904000526 81 0 0.0 0.0 0.00 0.00 0.00 90 1014.0
20260904000048 81 0 0.0 0.0 0.00 0.00 0.00 90 1014.0
20260903235524 81 0 0.0 0.0 0.00 0.00 0.00 90 1014.0
20260903235028 81 0 0.0 0.0 0.00 0.00 0.00 90 1013.9
20260903234549 81 0 0.0 0.0 0.00 0.00 0.00 90 1014.1
20260903234024 82 0 0.0 0.0 0.00 0.00 0.00 90 1014.0
20260903233529 82 0 0.0 0.0 0.00 0.00 0.00 90 1014.1
20260903233043 82 0 0.0 0.0 0.00 0.00 0.00 90 1014.0
20260903232524 82 0 0.0 0.0 0.00 0.00 0.00 89 1014.1
20260903232024 82 0 0.0 0.0 0.00 0.00 0.00 90 1014.1
20260903231602 82 0 0.0 0.0 0.00 0.00 0.00 89 1014.1
20260903231023 82 0 0.0 0.0 0.00 0.00 0.00 89 1014.3
20260903230524 82 0 0.0 0.0 0.00 0.00 0.00 89 1014.2